Regional Weather Roundup
Issued by NWS Midland/Odessa, TX

Home | Current Version | Previous Version | Text Only | Print | Product List | Glossary On
Versions: 1 2 3 4 5 6 7 8 9 10 11 12 13 14 15 16 17 18 19 20 21 22 23 24 25 26 27 28 29 30 31 32 33 34 35 36 37 38 39 40 41 42 43 44 45 46 47 48 49 50
000
ASUS44 KMAF 280910
RWRMAF
MIDLAND AREA WEATHER ROUNDUP
NATIONAL WEATHER SERVICE MIDLAND TX
400 AM CDT MON JUL 28 2014

...IN SOUTHWEST TEXAS AND SOUTHEAST NEW MEXICO...

CITY           SKY/WX    TMP DP  RH WIND       PRES   REMARKS
ALPINE         PTCLDY    75  55  48 S3        30.26F
ANDREWS        FAIR      77  57  49 S6        30.15S
ARTESIA        CLEAR     81  59  47 SE8       30.15S
BIG SPRING     CLEAR     81  57  43 SE7       30.14S
CARLSBAD       PTCLDY    83  57  41 SE8       30.13R
DRYDEN           N/A     85  63  47 E13       30.06F
FORT STOCKTON  CLEAR     79  59  50 SE13G21   30.12S
GUAD PASS      CLOUDY    74  57  55 E17         N/A
HOBBS          PTCLDY    75  57  53 S7        30.18S
MARFA          MOCLDY    73  55  53 E5        30.25F
MIDLAND AIRPK  CLEAR     81  56  41 S5        30.13S
MIDLAND INTL   CLEAR     79  56  45 SE7       30.12F
ODESSA         CLEAR     81  56  42 S7        30.14S
PECOS          PTCLDY    82  56  41 SE12      30.09R
PRESIDIO       FAIR      86  58  38 NE7       30.06S
SEMINOLE       CLEAR     75  56  51 S3        30.16S
SNYDER         CLEAR     80  60  50 S8        30.12S
WINK           CLEAR     82  57  42 SE7       30.10R
$$
...OTHER STATIONS IN TEXAS...

CITY           SKY/WX    TMP DP  RH WIND       PRES   REMARKS
ABILENE        CLEAR     81  63  54 SE8       30.09R
AMARILLO       CLOUDY    73  54  51 E12       30.26S
AUSTIN         CLEAR     73  72  96 S7        30.06R
BROWNSVILLE    CLEAR     80  78  94 SE6       30.03S
CORPUS CHRISTI PTCLDY    76  74  93 S7        30.04S
DALLAS FTW     PTCLDY    85  69  58 SW9       30.02S
DEL RIO        CLEAR     84  68  58 E10G18    30.03R
EL PASO        CLOUDY    80  57  45 N15       30.16R
HOUSTON INT    PTCLDY    80  75  84 CALM      30.05R
LUBBOCK        PTCLDY    74  65  73 E8        30.18S
SAN ANGELO     CLEAR     78  60  53 S6        30.08R
SAN ANTONIO    CLEAR     77  71  82 S8        30.07S
WACO           CLEAR     80  70  71 S8        30.05R
WICHITA FALLS  NOT AVBL
$$
...OTHER LOCATIONS IN NEW MEXICO...

CITY           SKY/WX    TMP DP  RH WIND       PRES   REMARKS
ALAMAGORDO     TSTM      70  63  78 S8        30.25R
ALBUQUERQUE    PTCLDY    71  56  58 N8        30.34S
CANNON AFB     PTCLDY    72  61  68 NE10      30.29R
CLOVIS         NOT AVBL
HOLLOMAN AFB   DRIZZLE   70  64  83 SE3       30.23R
ROSWELL        PTCLDY    80  55  42 CALM      30.16S
RUIDOSO        CLOUDY    57  52  82 E15       30.45R THUNDER
SANTA FE       CLOUDY    61  56  83 N15       30.42S
TRUTH OR CONSE LGT RAIN  71  61  70 NW12      30.27S
TUCUMCARI      CLOUDY    71  60  68 N21G30    30.30F
$$


USA.gov is the U.S. government's official web portal to all federal, state and local government web resources and services.